QPF
0.01 0.01 0.01 0.00 0.01 0.01 0.01 0.03 0.03 0.01 0.01 0.01 0.01 0.01 0.01 0.01 0.01 0.01 0.02 0.02 0.02 0.02 0.03 0.05 0.07 0.09 0.07 0.04 0.04 0.02 0.02 0.01 0.02 0.02 0.01 0.01 0.02 0.04 0.04 0.04 0.04 0.05 0.06 0.05
0.01 0.01 0.01 0.01 0.01 0.01 0.01 0.02 0.01 0.01 0.02 0.01 0.01 0.01 0.01 0.01 0.01 0.02 0.02 0.02 0.02 0.03 0.04 0.07 0.07 0.06 0.03 0.03 0.03 0.02 0.02 0.02 0.02 0.02 0.02 0.02 0.02 0.03 0.04 0.04 0.04 0.06 0.06 0.05
0.01 0.01 0.01 0.01 0.01 0.01 0.01 0.02 0.01 0.01 0.00 0.01 0.01 0.01 0.01 0.01 0.01 0.02 0.03 0.03 0.02 0.02 0.04 0.05 0.03 0.02 0.02 0.02 0.02 0.01 0.01 0.02 0.02 0.03 0.03 0.03 0.02 0.03 0.03 0.02 0.02 0.03 0.03 0.03
0.01 0.01 0.01 0.01 0.01 0.01 0.01 0.01 0.01 0.01 0.01 0.01 0.01 0.01 0.01 0.01 0.00 0.01 0.01 0.01 0.02 0.03 0.02 0.02 0.01 0.01 0.02 0.03 0.03 0.01 0.02 0.02 0.03 0.02 0.02 0.02 0.01 0.01 0.01 0.01 0.00 0.00 0.01 0.01
0.00 0.01 0.01 0.01 0.01 0.01 0.02 0.01 0.01 0.01 0.01 0.01 0.00 0.01 0.01 0.01 0.01 0.01 0.01 0.00 0.01 0.02 0.02 0.02 0.02 0.03 0.05 0.05 0.03 0.03 0.03 0.03 0.03 0.02 0.02 0.02 0.01 0.01 0.00 0.00 0.01 0.00 0.00 0.01
0.00 0.00 0.00 0.01 0.01 0.01 0.01 0.02 0.02 0.01 0.01 0.01 0.01 0.01 0.01 0.01 0.01 0.01 0.01 0.00 0.01 0.01 0.03 0.02 0.06 0.07 0.10 0.08 0.05 0.04 0.04 0.03 0.02 0.02 0.01 0.01 0.01 0.00 0.00 0.00 0.01 0.01 0.01 0.01
0.00 0.01 0.00 0.01 0.02 0.02 0.02 0.02 0.04 0.03 0.01 0.02 0.01 0.01 0.01 0.02 0.02 0.02 0.02 0.02 0.02 0.03 0.03 0.03 0.06 0.14 0.12 0.07 0.05 0.05 0.04 0.03 0.02 0.02 0.02 0.01 0.01 0.00 0.01 0.01 0.01 0.02 0.02 0.01
0.00 0.01 0.01 0.00 0.01 0.02 0.02 0.01 0.01 0.01 0.01 0.01 0.01 0.01 0.01 0.01 0.01 0.04 0.03 0.02 0.03 0.04 0.04 0.05 0.07 0.11 0.11 0.05 0.04 0.04 0.03 0.03 0.01 0.00 0.00 0.01 0.01 0.01 0.01 0.01 0.02 0.02 0.03 0.03
0.00 0.00 0.00 0.00 0.00 0.00 0.01 0.00 0.00 0.00 0.00 0.00 0.00 0.01 0.02 0.01 0.01 0.03 0.02 0.02 0.03 0.02 0.05 0.08 0.10 0.12 0.10 0.05 0.04 0.03 0.02 0.01 0.01 0.00 0.01 0.01 0.01 0.02 0.02 0.02 0.03 0.05 0.06 0.06
0.00 0.00 0.00 0.00 0.01 0.00 0.00 0.01 0.01 0.00 0.00 0.00 0.00 0.00 0.01 0.01 0.01 0.02 0.02 0.02 0.01 0.01 0.02 0.05 0.06 0.08 0.07 0.07 0.04 0.03 0.03 0.01 0.01 0.01 0.01 0.01 0.01 0.01 0.02 0.02 0.03 0.04 0.07 0.08
0.00 0.00 0.00 0.00 0.01 0.00 0.01 0.01 0.00 0.00 0.00 0.00 0.00 0.00 0.00 0.00 0.01 0.01 0.02 0.02 0.02 0.01 0.02 0.05 0.09 0.08 0.07 0.07 0.04 0.05 0.05 0.03 0.01 0.01 0.00 0.00 0.01 0.01 0.01 0.01 0.01 0.02 0.03 0.05
0.00 0.00 0.00 0.00 0.00 0.00 0.01 0.01 0.01 0.00 0.00 0.00 0.00 0.00 0.00 0.00 0.01 0.01 0.01 0.02 0.02 0.03 0.04 0.05 0.11 0.11 0.07 0.06 0.06 0.06 0.05 0.04 0.02 0.01 0.01 0.01 0.01 0.01 0.01 0.00 0.01 0.01 0.02 0.03
0.00 0.00 0.00 0.00 0.00 0.00 0.01 0.01 0.01 0.01 0.00 0.00 0.00 0.00 0.00 0.00 0.01 0.01 0.01 0.01 0.01 0.02 0.04 0.05 0.07 0.09 0.07 0.05 0.06 0.06 0.04 0.04 0.03 0.02 0.02 0.01 0.01 0.01 0.02 0.01 0.01 0.01 0.02 0.03
0.00 0.00 0.00 0.00 0.00 0.00 0.00 0.01 0.01 0.01 0.01 0.01 0.00 0.00 0.00 0.00 0.01 0.02 0.02 0.02 0.01 0.01 0.02 0.03 0.04 0.06 0.04 0.04 0.06 0.07 0.07 0.07 0.07 0.04 0.02 0.02 0.02 0.02 0.02 0.02 0.02 0.02 0.03 0.04
0.01 0.00 0.00 0.00 0.00 0.00 0.00 0.00 0.01 0.01 0.01 0.01 0.01 0.01 0.00 0.01 0.01 0.02 0.01 0.01 0.01 0.01 0.01 0.02 0.02 0.02 0.03 0.04 0.06 0.06 0.07 0.09 0.11 0.10 0.07 0.04 0.03 0.03 0.03 0.04 0.03 0.03 0.03 0.04
0.01 0.00 0.00 0.00 0.00 0.00 0.00 0.00 0.00 0.01 0.01 0.01 0.01 0.01 0.01 0.01 0.01 0.01 0.01 0.01 0.01 0.01 0.01 0.01 0.01 0.02 0.03 0.03 0.04 0.04 0.03 0.05 0.08 0.10 0.11 0.07 0.05 0.04 0.04 0.04 0.04 0.04 0.04 0.04
0.01 0.00 0.00 0.00 0.00 0.00 0.00 0.00 0.00 0.00 0.01 0.01 0.01 0.01 0.00 0.00 0.01 0.01 0.01 0.01 0.01 0.03 0.02 0.02 0.02 0.03 0.03 0.04 0.05 0.04 0.03 0.03 0.04 0.05 0.07 0.08 0.05 0.04 0.04 0.03 0.03 0.03 0.03 0.03
0.00 0.00 0.00 0.00 0.00 0.00 0.00 0.00 0.00 0.00 0.00 0.01 0.00 0.00 0.00 0.00 0.01 0.01 0.01 0.01 0.01 0.02 0.02 0.03 0.05 0.04 0.05 0.05 0.06 0.06 0.06 0.06 0.05 0.04 0.05 0.07 0.06 0.05 0.04 0.04 0.05 0.05 0.05 0.04
0.00 0.00 0.00 0.00 0.00 0.00 0.00 0.01 0.01 0.01 0.01 0.00 0.00 0.00 0.00 0.00 0.01 0.01 0.01 0.01 0.01 0.02 0.02 0.03 0.04 0.07 0.08 0.05 0.03 0.05 0.07 0.09 0.07 0.05 0.06 0.05 0.06 0.06 0.04 0.03 0.05 0.06 0.06 0.05
0.00 0.00 0.00 0.00 0.00 0.00 0.01 0.01 0.01 0.01 0.01 0.01 0.01 0.00 0.00 0.00 0.01 0.01 0.01 0.01 0.01 0.01 0.01 0.03 0.04 0.05 0.04 0.03 0.04 0.04 0.05 0.07 0.07 0.07 0.07 0.08 0.07 0.06 0.04 0.03 0.03 0.04 0.06 0.09
0.00 0.01 0.02 0.01 0.01 0.00 0.00 0.01 0.01 0.02 0.01 0.01 0.01 0.00 0.00 0.00 0.00 0.01 0.01 0.02 0.02 0.02 0.02 0.02 0.03 0.03 0.03 0.04 0.05 0.05 0.05 0.05 0.06 0.06 0.07 0.10 0.10 0.08 0.06 0.06 0.06 0.07 0.08 0.09
0.00 0.00 0.01 0.01 0.00 0.00 0.00 0.01 0.01 0.02 0.01 0.01 0.01 0.00 0.00 0.00 0.00 0.00 0.01 0.03 0.06 0.05 0.04 0.03 0.03 0.04 0.04 0.05 0.06 0.08 0.06 0.05 0.04 0.04 0.05 0.06 0.06 0.05 0.05 0.05 0.06 0.05 0.05 0.05
0.00 0.00 0.01 0.02 0.02 0.01 0.01 0.00 0.01 0.00 0.00 0.01 0.01 0.01 0.01 0.01 0.01 0.01 0.01 0.02 0.06 0.07 0.05 0.05 0.04 0.04 0.04 0.04 0.04 0.05 0.05 0.05 0.05 0.05 0.05 0.05 0.05 0.03 0.03 0.04 0.05 0.05 0.04 0.04
0.01 0.01 0.01 0.03 0.04 0.03 0.01 0.01 0.01 0.01 0.00 0.01 0.01 0.01 0.01 0.01 0.01 0.01 0.01 0.01 0.02 0.04 0.04 0.04 0.04 0.04 0.04 0.04 0.04 0.04 0.04 0.06 0.08 0.08 0.07 0.07 0.06 0.04 0.03 0.03 0.04 0.05 0.05 0.06
0.02 0.01 0.01 0.01 0.01 0.02 0.01 0.01 0.01 0.01 0.01 0.01 0.01 0.02 0.02 0.02 0.01 0.01 0.01 0.01 0.01 0.01 0.02 0.03 0.03 0.02 0.03 0.04 0.04 0.04 0.04 0.04 0.04 0.05 0.06 0.07 0.06 0.04 0.03 0.02 0.03 0.03 0.04 0.05
0.01 0.01 0.01 0.00 0.00 0.00 0.00 0.00 0.00 0.01 0.01 0.02 0.02 0.02 0.02 0.02 0.01 0.00 0.01 0.01 0.01 0.01 0.01 0.01 0.01 0.01 0.02 0.03 0.04 0.04 0.04 0.03 0.03 0.04 0.05 0.05 0.04 0.02 0.02 0.01 0.01 0.01 0.02 0.03
MSLP
1005.99 1006.89 1007.56 1007.98 1008.19 1008.27 1008.29 1008.35 1008.49 1008.73 1009.04 1009.36 1009.63 1009.79 1009.82 1009.73 1009.55 1009.35 1009.17 1009.06 1009.04 1009.07 1009.13 1009.14 1009.05 1008.83 1008.48 1008.05 1007.58 1007.17 1006.89 1006.79 1006.90 1007.20 1007.64 1008.17 1008.72 1009.23 1009.68 1010.07 1010.41 1010.73 1011.06 1011.44
1006.54 1007.25 1007.72 1007.98 1008.08 1008.13 1008.21 1008.38 1008.67 1009.06 1009.49 1009.88 1010.16 1010.27 1010.21 1009.99 1009.70 1009.41 1009.20 1009.10 1009.13 1009.26 1009.44 1009.57 1009.60 1009.49 1009.24 1008.87 1008.48 1008.12 1007.88 1007.82 1007.95 1008.26 1008.68 1009.16 1009.63 1010.05 1010.38 1010.66 1010.89 1011.12 1011.40 1011.74
1006.82 1007.32 1007.59 1007.70 1007.73 1007.80 1007.97 1008.30 1008.79 1009.36 1009.93 1010.40 1010.68 1010.74 1010.58 1010.24 1009.84 1009.46 1009.19 1009.09 1009.17 1009.37 1009.63 1009.86 1009.98 1009.94 1009.75 1009.44 1009.08 1008.77 1008.58 1008.57 1008.74 1009.07 1009.51 1009.98 1010.41 1010.77 1011.03 1011.22 1011.37 1011.53 1011.75 1012.06
1006.84 1007.13 1007.23 1007.23 1007.25 1007.39 1007.72 1008.25 1008.96 1009.73 1010.45 1010.99 1011.27 1011.26 1010.98 1010.51 1009.97 1009.48 1009.15 1009.04 1009.13 1009.39 1009.73 1010.04 1010.23 1010.25 1010.10 1009.83 1009.51 1009.24 1009.10 1009.13 1009.35 1009.73 1010.19 1010.67 1011.10 1011.43 1011.65 1011.78 1011.87 1011.98 1012.16 1012.43
1006.69 1006.79 1006.76 1006.71 1006.77 1007.04 1007.57 1008.35 1009.29 1010.26 1011.10 1011.70 1011.95 1011.84 1011.41 1010.77 1010.08 1009.47 1009.06 1008.91 1009.02 1009.33 1009.74 1010.12 1010.38 1010.46 1010.37 1010.14 1009.86 1009.63 1009.52 1009.60 1009.86 1010.28 1010.77 1011.27 1011.71 1012.03 1012.22 1012.32 1012.38 1012.45 1012.60 1012.84
1006.44 1006.40 1006.29 1006.26 1006.43 1006.88 1007.63 1008.65 1009.81 1010.95 1011.89 1012.49 1012.67 1012.42 1011.82 1011.00 1010.13 1009.38 1008.89 1008.70 1008.82 1009.18 1009.65 1010.12 1010.46 1010.62 1010.59 1010.41 1010.18 1009.98 1009.91 1010.01 1010.30 1010.74 1011.26 1011.78 1012.22 1012.55 1012.74 1012.83 1012.87 1012.92 1013.04 1013.26
1006.18 1006.05 1005.94 1005.98 1006.29 1006.93 1007.92 1009.15 1010.49 1011.74 1012.72 1013.27 1013.34 1012.92 1012.13 1011.11 1010.06 1009.19 1008.60 1008.39 1008.52 1008.93 1009.48 1010.04 1010.47 1010.72 1010.77 1010.66 1010.48 1010.31 1010.27 1010.39 1010.69 1011.13 1011.65 1012.18 1012.63 1012.96 1013.15 1013.25 1013.29 1013.33 1013.44 1013.65
1005.98 1005.82 1005.75 1005.89 1006.36 1007.20 1008.37 1009.77 1011.21 1012.51 1013.45 1013.91 1013.82 1013.22 1012.23 1011.03 1009.83 1008.84 1008.20 1007.96 1008.12 1008.59 1009.22 1009.88 1010.42 1010.77 1010.91 1010.87 1010.74 1010.62 1010.59 1010.71 1011.01 1011.44 1011.95 1012.46 1012.91 1013.25 1013.46 1013.56 1013.62 1013.67 1013.78 1013.97
1005.82 1005.69 1005.70 1005.97 1006.58 1007.57 1008.86 1010.35 1011.82 1013.07 1013.92 1014.24 1013.99 1013.21 1012.05 1010.71 1009.40 1008.34 1007.67 1007.44 1007.64 1008.17 1008.89 1009.64 1010.28 1010.73 1010.97 1011.02 1010.95 1010.87 1010.86 1010.98 1011.26 1011.66 1012.15 1012.64 1013.08 1013.42 1013.65 1013.78 1013.85 1013.91 1014.02 1014.20
1005.68 1005.62 1005.73 1006.12 1006.85 1007.92 1009.27 1010.74 1012.15 1013.30 1014.00 1014.16 1013.75 1012.83 1011.56 1010.13 1008.79 1007.72 1007.05 1006.86 1007.11 1007.70 1008.49 1009.32 1010.05 1010.60 1010.93 1011.06 1011.07 1011.03 1011.05 1011.18 1011.44 1011.82 1012.28 1012.75 1013.18 1013.52 1013.76 1013.91 1014.01 1014.09 1014.20 1014.36
1005.50 1005.54 1005.76 1006.25 1007.05 1008.14 1009.44 1010.82 1012.09 1013.07 1013.60 1013.61 1013.07 1012.07 1010.76 1009.34 1008.03 1007.01 1006.41 1006.27 1006.57 1007.21 1008.04 1008.92 1009.72 1010.34 1010.75 1010.97 1011.06 1011.10 1011.16 1011.32 1011.58 1011.95 1012.38 1012.83 1013.25 1013.59 1013.84 1014.02 1014.14 1014.24 1014.35 1014.50
1005.26 1005.42 1005.74 1006.29 1007.10 1008.14 1009.34 1010.55 1011.63 1012.40 1012.76 1012.63 1012.02 1011.02 1009.75 1008.42 1007.22 1006.31 1005.80 1005.72 1006.06 1006.71 1007.56 1008.45 1009.27 1009.94 1010.42 1010.73 1010.92 1011.05 1011.19 1011.40 1011.69 1012.07 1012.50 1012.94 1013.35 1013.70 1013.96 1014.16 1014.30 1014.42 1014.53 1014.67
1004.98 1005.25 1005.66 1006.24 1007.01 1007.95 1008.97 1009.98 1010.83 1011.40 1011.60 1011.38 1010.76 1009.81 1008.67 1007.50 1006.46 1005.69 1005.29 1005.27 1005.62 1006.25 1007.06 1007.91 1008.72 1009.41 1009.94 1010.34 1010.63 1010.88 1011.13 1011.43 1011.79 1012.20 1012.65 1013.10 1013.52 1013.87 1014.15 1014.36 1014.52 1014.66 1014.78 1014.91
1004.73 1005.10 1005.57 1006.15 1006.85 1007.64 1008.46 1009.23 1009.85 1010.23 1010.30 1010.03 1009.45 1008.63 1007.67 1006.70 1005.85 1005.24 1004.93 1004.96 1005.28 1005.83 1006.55 1007.32 1008.07 1008.75 1009.32 1009.80 1010.22 1010.60 1010.98 1011.40 1011.85 1012.34 1012.83 1013.30 1013.73 1014.10 1014.40 1014.63 1014.81 1014.96 1015.10 1015.22
1004.63 1005.08 1005.58 1006.13 1006.72 1007.34 1007.95 1008.49 1008.89 1009.10 1009.07 1008.80 1008.31 1007.64 1006.88 1006.13 1005.49 1005.02 1004.79 1004.81 1005.05 1005.50 1006.07 1006.71 1007.37 1008.01 1008.60 1009.16 1009.69 1010.21 1010.75 1011.31 1011.87 1012.44 1013.00 1013.51 1013.96 1014.35 1014.66 1014.92 1015.13 1015.30 1015.46 1015.59
1004.80 1005.30 1005.81 1006.30 1006.77 1007.22 1007.61 1007.93 1008.14 1008.21 1008.12 1007.88 1007.49 1007.00 1006.45 1005.90 1005.43 1005.08 1004.88 1004.85 1004.99 1005.27 1005.67 1006.15 1006.68 1007.25 1007.84 1008.46 1009.10 1009.76 1010.44 1011.13 1011.82 1012.48 1013.09 1013.64 1014.12 1014.53 1014.87 1015.16 1015.40 1015.61 1015.80 1015.96
1005.31 1005.85 1006.33 1006.74 1007.09 1007.37 1007.57 1007.70 1007.75 1007.72 1007.60 1007.39 1007.12 1006.78 1006.42 1006.05 1005.72 1005.44 1005.23 1005.13 1005.12 1005.22 1005.41 1005.71 1006.10 1006.58 1007.15 1007.80 1008.51 1009.28 1010.08 1010.89 1011.67 1012.40 1013.06 1013.64 1014.15 1014.58 1014.94 1015.27 1015.56 1015.82 1016.05 1016.26
1006.20 1006.73 1007.17 1007.50 1007.73 1007.86 1007.91 1007.88 1007.81 1007.70 1007.57 1007.41 1007.23 1007.03 1006.81 1006.58 1006.34 1006.09 1005.86 1005.65 1005.48 1005.39 1005.38 1005.49 1005.73 1006.11 1006.62 1007.27 1008.02 1008.84 1009.71 1010.58 1011.40 1012.17 1012.85 1013.44 1013.96 1014.40 1014.80 1015.17 1015.51 1015.84 1016.14 1016.42
1007.37 1007.86 1008.25 1008.51 1008.64 1008.65 1008.58 1008.45 1008.29 1008.14 1008.00 1007.88 1007.78 1007.69 1007.58 1007.44 1007.25 1007.01 1006.72 1006.41 1006.10 1005.83 1005.65 1005.58 1005.67 1005.93 1006.37 1006.97 1007.69 1008.51 1009.38 1010.24 1011.06 1011.80 1012.46 1013.03 1013.54 1013.99 1014.41 1014.82 1015.23 1015.63 1016.02 1016.38
1008.65 1009.11 1009.45 1009.64 1009.70 1009.63 1009.48 1009.29 1009.08 1008.91 1008.78 1008.70 1008.66 1008.64 1008.60 1008.51 1008.35 1008.11 1007.78 1007.38 1006.96 1006.55 1006.22 1006.02 1005.97 1006.11 1006.45 1006.95 1007.60 1008.35 1009.14 1009.92 1010.66 1011.33 1011.92 1012.43 1012.90 1013.34 1013.78 1014.23 1014.71 1015.19 1015.68 1016.13
1009.86 1010.29 1010.58 1010.74 1010.75 1010.65 1010.47 1010.25 1010.04 1009.86 1009.75 1009.71 1009.71 1009.73 1009.74 1009.69 1009.54 1009.30 1008.94 1008.50 1008.01 1007.52 1007.09 1006.78 1006.62 1006.65 1006.87 1007.25 1007.77 1008.38 1009.03 1009.67 1010.27 1010.80 1011.28 1011.71 1012.11 1012.52 1012.96 1013.45 1013.98 1014.55 1015.12 1015.67
1010.83 1011.22 1011.50 1011.64 1011.65 1011.56 1011.39 1011.19 1010.99 1010.84 1010.76 1010.74 1010.77 1010.82 1010.85 1010.82 1010.70 1010.46 1010.11 1009.66 1009.15 1008.63 1008.16 1007.79 1007.55 1007.49 1007.58 1007.82 1008.18 1008.61 1009.08 1009.52 1009.93 1010.30 1010.62 1010.93 1011.25 1011.61 1012.04 1012.54 1013.12 1013.75 1014.40 1015.04
1011.43 1011.81 1012.09 1012.25 1012.30 1012.24 1012.12 1011.96 1011.82 1011.71 1011.65 1011.65 1011.70 1011.77 1011.81 1011.80 1011.70 1011.49 1011.17 1010.76 1010.28 1009.79 1009.32 1008.93 1008.65 1008.51 1008.49 1008.59 1008.77 1009.01 1009.25 1009.49 1009.69 1009.86 1010.03 1010.20 1010.42 1010.71 1011.11 1011.60 1012.20 1012.86 1013.57 1014.28
1011.65 1012.04 1012.34 1012.54 1012.64 1012.65 1012.60 1012.52 1012.43 1012.37 1012.34 1012.36 1012.42 1012.49 1012.55 1012.55 1012.48 1012.31 1012.05 1011.70 1011.29 1010.85 1010.43 1010.07 1009.78 1009.58 1009.47 1009.43 1009.45 1009.49 1009.54 1009.56 1009.56 1009.55 1009.55 1009.58 1009.70 1009.91 1010.24 1010.71 1011.29 1011.96 1012.69 1013.43
1011.56 1011.96 1012.30 1012.55 1012.72 1012.81 1012.84 1012.84 1012.81 1012.80 1012.80 1012.84 1012.90 1012.97 1013.03 1013.04 1013.00 1012.88 1012.68 1012.41 1012.09 1011.74 1011.39 1011.06 1010.78 1010.56 1010.38 1010.24 1010.12 1010.01 1009.87 1009.72 1009.54 1009.37 1009.22 1009.14 1009.14 1009.26 1009.52 1009.92 1010.45 1011.09 1011.79 1012.52
1011.32 1011.72 1012.09 1012.39 1012.63 1012.80 1012.91 1012.97 1013.01 1013.04 1013.07 1013.12 1013.17 1013.24 1013.29 1013.31 1013.29 1013.21 1013.07 1012.88 1012.64 1012.38 1012.10 1011.83 1011.58 1011.34 1011.13 1010.92 1010.70 1010.47 1010.20 1009.92 1009.62 1009.32 1009.06 1008.87 1008.77 1008.80 1008.97 1009.28 1009.73 1010.28 1010.92 1011.60
Thickness
5812 5798 5789 5796 5802 5802 5796 5788 5784 5793 5808 5799 5791 5790 5796 5802 5800 5797 5796 5796 5795 5796 5799 5799 5799 5797 5794 5792 5789 5788 5786 5785 5783 5781 5778 5775 5772 5772 5771 5771 5769 5768 5767 5765
5795 5790 5806 5812 5810 5804 5796 5787 5785 5794 5806 5798 5788 5788 5796 5800 5800 5800 5799 5797 5796 5796 5796 5796 5797 5796 5793 5791 5789 5787 5785 5784 5783 5781 5778 5775 5772 5770 5769 5767 5766 5765 5764 5763
5789 5800 5814 5809 5803 5797 5793 5788 5787 5787 5794 5795 5786 5779 5787 5797 5802 5803 5803 5801 5799 5798 5796 5796 5796 5795 5793 5790 5789 5788 5785 5784 5782 5780 5777 5774 5770 5767 5765 5763 5762 5762 5761 5760
5794 5807 5809 5803 5800 5799 5787 5803 5799 5792 5779 5768 5776 5756 5779 5788 5792 5797 5800 5800 5799 5800 5799 5798 5796 5794 5793 5791 5790 5788 5784 5782 5781 5778 5775 5771 5766 5761 5760 5760 5759 5758 5757 5756
5793 5805 5804 5798 5804 5806 5798 5808 5799 5790 5775 5764 5767 5757 5768 5783 5784 5793 5800 5802 5803 5802 5801 5798 5798 5796 5794 5792 5789 5786 5783 5780 5778 5776 5773 5769 5764 5761 5759 5758 5756 5755 5754 5753
5800 5813 5812 5810 5815 5814 5808 5797 5786 5773 5762 5748 5759 5755 5761 5776 5787 5795 5801 5804 5804 5803 5801 5798 5797 5795 5793 5791 5788 5784 5779 5777 5776 5773 5770 5767 5763 5759 5756 5754 5752 5750 5749 5749
5787 5800 5813 5817 5804 5804 5798 5773 5749 5745 5736 5742 5759 5756 5764 5791 5799 5800 5802 5804 5805 5803 5800 5796 5794 5792 5790 5788 5784 5781 5776 5774 5772 5770 5767 5764 5761 5758 5755 5752 5750 5747 5746 5744
5766 5771 5801 5810 5804 5793 5789 5777 5749 5737 5733 5740 5755 5753 5775 5799 5804 5806 5806 5805 5803 5800 5798 5796 5794 5791 5788 5786 5782 5779 5775 5772 5770 5767 5764 5762 5759 5757 5754 5752 5749 5746 5743 5742
5763 5770 5804 5813 5815 5804 5784 5773 5776 5751 5743 5737 5746 5760 5781 5799 5799 5800 5800 5800 5799 5798 5797 5795 5793 5790 5787 5784 5781 5778 5774 5770 5768 5765 5762 5759 5757 5755 5752 5749 5747 5744 5741 5739
5779 5771 5792 5804 5809 5803 5796 5779 5760 5746 5731 5728 5743 5752 5761 5782 5787 5792 5794 5794 5795 5795 5795 5793 5791 5789 5787 5784 5781 5777 5773 5768 5765 5762 5760 5757 5754 5752 5749 5746 5743 5740 5738 5736
5783 5769 5777 5787 5785 5783 5782 5773 5758 5744 5743 5729 5727 5747 5784 5786 5789 5789 5792 5794 5793 5793 5792 5791 5789 5787 5784 5781 5777 5773 5769 5766 5762 5759 5756 5753 5750 5748 5745 5742 5739 5736 5734 5732
5777 5762 5755 5772 5789 5795 5788 5776 5761 5750 5740 5735 5733 5749 5793 5792 5792 5791 5789 5790 5791 5790 5789 5788 5785 5783 5780 5776 5773 5770 5766 5762 5759 5755 5752 5749 5746 5744 5740 5737 5735 5732 5730 5728
5773 5756 5742 5749 5763 5777 5777 5773 5764 5753 5738 5729 5731 5753 5788 5787 5787 5788 5787 5786 5786 5785 5784 5782 5779 5777 5775 5772 5769 5766 5762 5759 5756 5752 5748 5745 5742 5739 5736 5733 5731 5728 5726 5723
5778 5751 5745 5740 5749 5763 5767 5768 5763 5754 5739 5734 5742 5756 5774 5778 5780 5782 5783 5782 5782 5781 5779 5777 5774 5772 5770 5767 5764 5761 5759 5756 5753 5748 5744 5740 5738 5735 5733 5730 5727 5724 5721 5718
5769 5749 5752 5757 5765 5766 5766 5766 5763 5759 5754 5748 5755 5756 5770 5776 5778 5780 5780 5778 5776 5775 5774 5772 5770 5768 5765 5762 5759 5757 5754 5752 5749 5744 5739 5735 5733 5730 5728 5725 5721 5719 5716 5714
5754 5747 5748 5750 5759 5761 5759 5762 5763 5762 5760 5757 5759 5759 5775 5778 5777 5775 5775 5774 5771 5770 5770 5768 5766 5763 5761 5758 5756 5753 5749 5746 5743 5739 5734 5731 5729 5725 5722 5718 5715 5712 5709 5707
5740 5740 5732 5730 5746 5750 5740 5754 5758 5757 5759 5759 5754 5763 5771 5769 5770 5769 5770 5769 5768 5767 5766 5763 5760 5758 5756 5754 5752 5748 5745 5742 5738 5734 5730 5726 5723 5719 5716 5713 5709 5706 5703 5700
5735 5728 5720 5719 5729 5718 5741 5762 5763 5757 5757 5761 5763 5765 5767 5767 5767 5767 5766 5764 5763 5762 5761 5759 5757 5754 5752 5749 5746 5743 5740 5736 5732 5727 5724 5720 5718 5714 5711 5707 5704 5701 5698 5694
5734 5726 5712 5706 5708 5719 5740 5754 5754 5749 5747 5759 5758 5761 5761 5761 5760 5757 5760 5761 5759 5758 5756 5754 5752 5750 5747 5743 5740 5736 5731 5727 5722 5719 5716 5714 5711 5708 5705 5701 5698 5695 5692 5689
5724 5722 5711 5702 5704 5704 5731 5753 5759 5751 5737 5755 5757 5755 5753 5753 5743 5745 5754 5754 5752 5751 5750 5748 5746 5742 5739 5736 5732 5727 5722 5718 5714 5712 5710 5707 5704 5701 5698 5695 5692 5689 5686 5682
5710 5705 5701 5698 5700 5710 5734 5747 5751 5728 5735 5754 5754 5751 5748 5745 5745 5746 5747 5745 5744 5742 5741 5739 5736 5732 5729 5727 5723 5718 5713 5710 5708 5706 5703 5699 5696 5693 5690 5687 5684 5681 5678 5675
5698 5695 5692 5691 5694 5704 5735 5737 5732 5734 5746 5749 5748 5746 5743 5740 5740 5739 5738 5735 5734 5731 5730 5729 5725 5721 5719 5717 5714 5710 5705 5704 5700 5697 5694 5690 5687 5686 5683 5678 5675 5672 5669 5665
5694 5697 5695 5697 5703 5718 5726 5730 5736 5738 5738 5741 5741 5740 5738 5733 5731 5729 5727 5725 5724 5722 5720 5719 5716 5712 5709 5707 5705 5701 5699 5697 5693 5689 5684 5681 5678 5675 5672 5669 5667 5663 5659 5656
5693 5695 5693 5695 5705 5714 5719 5725 5730 5733 5734 5736 5735 5734 5732 5726 5723 5720 5718 5715 5714 5712 5710 5709 5706 5703 5699 5697 5695 5694 5691 5689 5685 5680 5676 5673 5670 5666 5663 5660 5658 5655 5651 5648
5687 5689 5687 5689 5699 5707 5714 5718 5722 5725 5728 5728 5727 5725 5723 5719 5715 5712 5709 5707 5705 5703 5701 5699 5696 5693 5690 5687 5685 5684 5682 5679 5676 5671 5667 5664 5661 5658 5655 5652 5649 5647 5644 5642
5680 5682 5683 5686 5695 5696 5701 5710 5715 5716 5717 5717 5716 5713 5712 5711 5707 5704 5701 5698 5696 5693 5691 5689 5686 5684 5681 5679 5677 5675 5673 5670 5667 5663 5659 5655 5652 5649 5647 5643 5640 5639 5637 5634